Location: Ajisawe
(8.4333°N, 4.3833°E)
Time: 21:17:08
(UTC+00:00)

Vanguard 2 Rocket - Pass Details

Date: 21 April 2021
Orbit: 554 x 3326 km, 32.9° (Epoch: 16 May)

Event Time Altitude Azimuth Distance (km) Brightness Sun altitude
Rises 08:59:44 0° 222° (SW) 4,330 10.1 50.2°
Reaches altitude 10° 09:02:12 10° 218° (SW) 3,641 9.8 50.8°
Maximum altitude 09:12:06 61° 140° (SE) 2,407 10.2 53.2°
Drops below altitude 10° 09:29:03 10° 64° (ENE) 5,946 11.7 57.3°
Sets 09:34:19 0° 61° (ENE) 7,176 11.9 58.6°
